Cross City, FL

8:58 PM EDT on August 22, 2019 (GMT -0400)
Cross City

Weather History for KCTY - July, 2019

Change the Weather History Date:

Monday, July 15, 2019

  Actual Average Record
Temperature  
Mean Temperature 85 °F 81 °F  
Max Temperature 96 °F 91 °F 96 °F (2006)
Min Temperature 74 °F 72 °F 68 °F (2001)
Degree Days  
Heating Degree Days 0    
Month to date heating degree days 0  
Since 1 June heating degree days 0  
Since 1 July heating degree days 0  
Cooling Degree Days 20    
Month to date cooling degree days 277  
Year to date cooling degree days 1453  
Since 1 June cooling degree days 769  
Growing Degree Days 34 (Base 50)    
Moisture  
Dew Point 75 °F    
Average Humidity 82    
Maximum Humidity 98    
Minimum Humidity 41    
Precipitation  
Precipitation 0.48 in 0.17 in 2.76 in (2017)
Month to date precipitation 2.51 2.56  
Year to date precipitation 31.16 24.82  
Sea Level Pressure  
Sea Level Pressure 30.10 in    
Wind  
Wind Speed 2 mph (West)    
Max Wind Speed 16 mph    
Max Gust Speed 33 mph    
Visibility 9 miles    
Events Rain , Thunderstorm    
T = Trace of Precipitation, MM = Missing Value Source: NWS Daily Summary

Daily Weather History Graph

Daily Weather History Graph

Search for Another Location

Airport or City:

Astronomy

Jul. 15, 2019 Rise Set
Actual Time 6:42 AM EDT 8:34 PM EDT
Civil Twilight 6:15 AM EDT 9:01 PM EDT
Nautical Twilight 5:43 AM EDT 9:33 PM EDT
Astronomical Twilight 5:08 AM EDT 10:07 PM EDT
Moon 7:49 PM EDT (7/15) 5:29 AM EDT (7/15)
Length of Visible Light 14h 45m
Length of Day
13h 52m
Waxing Gibbous, 98% of the Moon is Illuminated
Jul 15
Waxing Gibbous
Jul 16
Full
Jul 24
Last Quarter
Jul 31
New
Aug 7
First Quarter

Hourly Weather History & Observations

Time (EDT) Temp. Heat Index Dew Point Humidity Pressure Visibility Wind Dir Wind Speed Gust Speed Precip Events Conditions
12:15 AM 77.0 °F - 75.4 °F 95% 30.12 in 10.0 mi Calm Calm - N/A   Clear
12:35 AM 76.8 °F - 75.4 °F 95% 30.12 in 10.0 mi Calm Calm - N/A   Clear
12:55 AM 76.5 °F - 75.0 °F 95% 30.12 in 7.0 mi Calm Calm - N/A   Clear
1:15 AM 76.5 °F - 74.8 °F 95% 30.12 in 10.0 mi Calm Calm - N/A   Clear
1:35 AM 76.1 °F - 74.8 °F 96% 30.11 in 10.0 mi Calm Calm - N/A   Clear
1:55 AM 75.9 °F - 75.0 °F 97% 30.10 in 7.0 mi Calm Calm - N/A   Clear
2:15 AM 76.8 °F - 75.9 °F 97% 30.11 in 7.0 mi Calm Calm - N/A   Clear
2:35 AM 77.0 °F - 76.1 °F 97% 30.10 in 7.0 mi Calm Calm - N/A   Clear
2:55 AM 75.9 °F - 74.7 °F 96% 30.10 in 7.0 mi Calm Calm - N/A   Clear
3:15 AM 75.2 °F - 73.8 °F 95% 30.09 in 10.0 mi Calm Calm - N/A   Clear
3:35 AM 75.7 °F - 74.8 °F 97% 30.08 in 7.0 mi ENE 3.5 mph - N/A   Clear
3:55 AM 75.4 °F - 74.5 °F 97% 30.08 in 7.0 mi Calm Calm - N/A   Clear
4:15 AM 75.4 °F - 74.7 °F 98% 30.08 in 7.0 mi Calm Calm - N/A   Clear
4:35 AM 75.0 °F - 73.8 °F 96% 30.08 in 10.0 mi Calm Calm - N/A   Clear
4:55 AM 74.7 °F - 73.6 °F 96% 30.08 in 7.0 mi Calm Calm - N/A   Clear
5:15 AM 74.8 °F - 74.1 °F 98% 30.09 in 7.0 mi Calm Calm - N/A   Clear
5:35 AM 74.7 °F - 73.8 °F 97% 30.09 in 7.0 mi Calm Calm - N/A   Clear
5:55 AM 74.1 °F - 73.0 °F 96% 30.09 in 10.0 mi Calm Calm - N/A   Clear
6:15 AM 74.1 °F - 72.9 °F 96% 30.09 in 10.0 mi Calm Calm - N/A   Clear
6:35 AM 73.9 °F - 73.0 °F 97% 30.10 in 10.0 mi Calm Calm - N/A   Clear
6:55 AM 73.8 °F - 72.5 °F 96% 30.10 in 10.0 mi Calm Calm - N/A   Clear
7:15 AM 74.3 °F - 73.4 °F 97% 30.10 in 7.0 mi Calm Calm - N/A   Clear
7:35 AM 75.4 °F - 74.3 °F 96% 30.11 in 10.0 mi Calm Calm - N/A   Clear
7:55 AM 77.0 °F - 75.2 °F 94% 30.12 in 10.0 mi Calm Calm - N/A   Clear
8:15 AM 79.5 °F - 75.7 °F 88% 30.12 in 10.0 mi Calm Calm - N/A   Clear
8:35 AM 81.5 °F 88.3 °F 75.9 °F 83% 30.12 in 10.0 mi Calm Calm - N/A   Clear
8:55 AM 82.6 °F 90.5 °F 76.3 °F 81% 30.12 in 7.0 mi Calm Calm - N/A   Haze
9:15 AM 83.7 °F 93.1 °F 77.0 °F 80% 30.12 in 10.0 mi Calm Calm - N/A   Clear
9:35 AM 84.7 °F 94.4 °F 76.3 °F 76% 30.12 in 10.0 mi Calm Calm - N/A   Clear
9:55 AM 86.2 °F 96.9 °F 76.6 °F 73% 30.13 in 10.0 mi Calm Calm - N/A   Clear
10:15 AM 87.3 °F 97.7 °F 75.9 °F 69% 30.13 in 10.0 mi Calm Calm - N/A   Clear
10:35 AM 88.2 °F 99.0 °F 75.7 °F 67% 30.13 in 10.0 mi Calm Calm - N/A   Clear
10:55 AM 89.1 °F 99.1 °F 75.0 °F 63% 30.14 in 10.0 mi WNW 3.5 mph - N/A   Clear
11:15 AM 89.4 °F 100.0 °F 75.6 °F 63% 30.14 in 10.0 mi Calm Calm - N/A   Scattered Clouds
11:35 AM 90.1 °F 100.6 °F 75.2 °F 61% 30.14 in 10.0 mi West 3.5 mph - N/A   Scattered Clouds
11:55 AM 91.8 °F 103.4 °F 75.7 °F 59% 30.14 in 10.0 mi WSW 3.5 mph - N/A   Mostly Cloudy
12:15 PM 91.0 °F 102.2 °F 75.6 °F 60% 30.14 in 10.0 mi WNW 5.8 mph - N/A   Mostly Cloudy
12:35 PM 92.3 °F 102.2 °F 73.9 °F 55% 30.13 in 10.0 mi SE 3.5 mph - N/A   Scattered Clouds
12:55 PM 91.9 °F 100.7 °F 73.0 °F 54% 30.13 in 10.0 mi Calm Calm - N/A   Scattered Clouds
1:15 PM 92.7 °F 104.3 °F 75.4 °F 57% 30.12 in 10.0 mi South 5.8 mph - N/A   Mostly Cloudy
1:35 PM 93.4 °F 105.5 °F 75.4 °F 56% 30.12 in 10.0 mi SSW 6.9 mph - N/A   Scattered Clouds
1:55 PM 93.6 °F 102.5 °F 72.9 °F 51% 30.11 in 10.0 mi South 3.5 mph - N/A   Scattered Clouds
2:15 PM 94.6 °F 106.5 °F 75.0 °F 53% 30.11 in 10.0 mi NNW 5.8 mph - N/A   Overcast
2:35 PM 92.3 °F 102.8 °F 74.5 °F 56% 30.10 in 10.0 mi North 4.6 mph - N/A   Overcast
2:55 PM 94.5 °F 103.3 °F 72.7 °F 49% 30.10 in 5.0 mi NE 3.5 mph - N/A   Haze
3:15 PM 93.2 °F 102.4 °F 73.4 °F 52% 30.09 in 10.0 mi NW 4.6 mph - N/A   Mostly Cloudy
3:35 PM 93.7 °F 103.6 °F 73.9 °F 52% 30.09 in 10.0 mi West 5.8 mph - N/A   Mostly Cloudy
3:55 PM 95.0 °F 105.9 °F 74.5 °F 51% 30.08 in 10.0 mi WSW 5.8 mph - N/A   Scattered Clouds
4:15 PM 94.8 °F 105.5 °F 74.1 °F 51% 30.08 in 10.0 mi SW 8.1 mph - N/A   Clear
4:35 PM 92.7 °F 101.7 °F 73.4 °F 53% 30.07 in 10.0 mi SW 5.8 mph - N/A   Mostly Cloudy
4:55 PM 80.2 °F 84.5 °F 72.7 °F 78% 30.10 in 1.5 mi NE 16.1 mph 33.4 mph 0.25 in Rain , Thunderstorm Heavy Thunderstorms and Rain
5:15 PM 75.7 °F - 72.9 °F 91% 30.10 in 7.0 mi NNW 13.8 mph - 0.13 in Rain , Thunderstorm Heavy Thunderstorms and Rain
5:35 PM 76.5 °F - 72.3 °F 87% 30.10 in 10.0 mi WNW 10.4 mph - 0.14 in Rain , Thunderstorm Light Thunderstorms and Rain
5:55 PM 76.1 °F - 72.5 °F 89% 30.09 in 10.0 mi WSW 4.6 mph - 0.14 in Thunderstorm Thunderstorm
6:15 PM 77.2 °F - 72.7 °F 86% 30.07 in 10.0 mi Calm Calm - N/A   Clear
6:35 PM 77.5 °F - 73.8 °F 88% 30.07 in 10.0 mi Calm Calm - N/A   Clear
6:55 PM 77.9 °F - 74.3 °F 89% 30.08 in 10.0 mi Calm Calm - N/A   Clear
7:15 PM 78.6 °F - 74.8 °F 88% 30.08 in 10.0 mi Calm Calm - N/A   Clear
7:35 PM 78.4 °F - 74.8 °F 89% 30.08 in 10.0 mi WSW 3.5 mph - N/A   Clear
7:55 PM 78.6 °F - 75.2 °F 89% 30.09 in 10.0 mi Calm Calm - N/A   Clear
8:15 PM 78.8 °F - 75.7 °F 90% 30.09 in 10.0 mi Calm Calm - N/A   Clear
8:35 PM 78.6 °F - 75.6 °F 90% 30.10 in 10.0 mi Calm Calm - N/A   Clear
8:55 PM 79.3 °F - 74.7 °F 86% 30.10 in 10.0 mi East 4.6 mph - N/A   Clear
9:15 PM 77.9 °F - 75.2 °F 91% 30.10 in 10.0 mi Calm Calm - N/A   Clear
9:35 PM 77.9 °F - 75.6 °F 92% 30.11 in 10.0 mi Calm Calm - N/A   Clear
9:55 PM 76.8 °F - 75.4 °F 95% 30.11 in 10.0 mi Calm Calm - N/A   Clear
10:15 PM 76.8 °F - 75.2 °F 95% 30.11 in 10.0 mi Calm Calm - N/A   Clear
10:35 PM 76.6 °F - 75.2 °F 95% 30.11 in 10.0 mi Calm Calm - N/A   Clear
10:55 PM 76.8 °F - 75.2 °F 95% 30.11 in 10.0 mi Calm Calm - N/A   Clear
11:15 PM 76.6 °F - 75.4 °F 96% 30.12 in 10.0 mi Calm Calm - N/A   Clear
11:35 PM 76.6 °F - 75.9 °F 98% 30.11 in 10.0 mi Calm Calm - N/A   Clear
11:55 PM 77.5 °F - 75.2 °F 92% 30.12 in 10.0 mi Calm Calm - N/A   Clear